Location: B?jaj?g
(11.7167°N, 92.6667°E)
Time: 15:15:17
(UTC+00:00)

Meteor 1-21 - Pass Details

Date: 18 September 2020
Orbit: 845 x 887 km, 81.2° (Epoch: 27 October)

Event Time Altitude Azimuth Distance (km) Brightness Sun altitude
Rises 13:16:22 0° 354° (N) 3,395 7.5 -22.4°
Reaches altitude 10° 13:18:47 10° 355° (N) 2,460 6.7 -23.0°
Maximum altitude 13:24:21 90° 31° (NNE) 849 4.1 -24.3°
Enters shadow 13:29:34 12° 175° (S) 2,321 6.3 -25.6°
